Location: Borovka
(49.7741°N, 14.5280°E)
Time: 15:42:31
(UTC+00:00)

Thor Agena Rocket - Pass Details

Date: 17 February 2026
Orbit: 755 x 801 km, 99.1° (Epoch: 7 March)

Event Time Altitude Azimuth Distance (km) Brightness Sun altitude
Rises 17:03:42 0° 182° (S) 3,228 6.9 -7.0°
Reaches altitude 10° 17:06:05 10° 189° (S) 2,313 6.2 -7.4°
Maximum altitude 17:10:56 44° 261° (W) 1,081 5.0 -8.2°
Drops below altitude 10° 17:15:53 10° 333° (NNW) 2,358 6.3 -9.0°
Sets 17:18:21 0° 340° (NNW) 3,299 7.0 -9.4°
